Preview of NWS' New Version of Forecast
This preview is not operational and should not be used for support decisions.
Latest weather observations around

Emigrant Gap, Blue Canyon Nyack Airport (KBLU)

Using English Units (Switch to International System of Units)
Date/ Time (PST) Wind (mph) Vis. (mi) Weather Sky Cond. Temp (°F) Rel. Humidity Wind Chill (°F) Heat Index (°F) Pressure Precip. (in)
Air Dwpt 6 hour Altimeter (inHg) Sea level (inHg) 1 hr 3 hr 6 hr
Max Min
Feb 20 01:21 SSE 7 10 Cloudy FEW010 BKN022 OVC070 25 22     88% 17   29.92        
Feb 20 00:52 SSE 9 10 Cloudy FEW006 SCT026 OVC070 25        % 16   29.93 29.98      
Feb 20 00:39 SSE 9 10 Cloudy SCT008 BKN024 OVC070 26 23     88% 17   29.95        
Feb 20 00:13 SSE 9 10 Cloudy SCT008 OVC075 26 23     88% 17   29.96        
Feb 19 23:52 SSE 7 10 Cloudy OVC075 26 23     88% 18   29.96 30.02      
Feb 19 22:52 SE 5 10 Cloudy OVC085 27 22     81% 21   29.98 30.04      
Feb 19 21:52 SSE 3 10 Mostly Cloudy BKN095 28 21     75% 24   30.01 30.08      
Feb 19 20:52 Calm 10 Cloudy BKN100 OVC110 27 23     85%     30.01 30.08      
Feb 19 19:52 SSE 3 10 Clear   27 23     85% 23   30.01 30.11      
Feb 19 18:52 Calm 10 Cloudy OVC110 28 23     81%     30.03 30.15      
Feb 19 17:52 S 3 10 Mostly Clear FEW120 30 21     69% 27   30.03 30.14      
Feb 19 16:52 Calm 10 Clear CLR 32 22     66%       30.15      
Feb 19 15:52 Calm 10 Clear CLR 35 22     58%     30.05 30.13     0
Feb 19 14:52 W 5 10 Clear CLR 33 20     58% 29   30.07 30.15      
Feb 19 13:52 W 5 10 Clear CLR 34 19     54% 30     30.14      
Feb 19 12:52 5 10 Clear CLR 34 17     50% 30   30.07 30.15   0  
Feb 19 11:52 W 3 10 Clear CLR 32 13     45% 29   30.08 30.17      
Feb 19 10:52 W 5 10 Clear CLR 30 13     48% 25   30.09 30.19 0    
Feb 19 09:52 ESE 3 9 Light Snow CLR 30 8     39% 27   30.07 30.18 0   0
Feb 19 08:52 Calm 10 Clear CLR 28 2     32%     30.08 30.2      
Feb 19 07:52 Calm 10 Clear CLR 24 4     41%     30.06 30.2      
Feb 19 06:52 SE 3 10 Clear CLR 19 7     59% 14   30.04 30.2      
Feb 19 05:52 Calm 10 Clear CLR 20 5     52%     30.03 30.17      
Feb 19 04:52 E 5 10 Clear CLR 20 7     57% 13   30.03        
Feb 19 03:52 5 10 Clear   20 9     62% 13   30.03        
Feb 19 02:52 7 10 Clear CLR 21 10     62% 12   30.05        
Feb 19 01:52 7 10 Clear CLR 21 12     68% 12   30.05 30.16      
Feb 19 00:52 NNE 8 10 Clear CLR 21 12     68% 11   30.05 30.15      
Feb 18 23:52 6 10 Clear CLR 21 12     68% 13   30.05 30.16      
Feb 18 22:52 E 11 10 Clear CLR 21 12     68% 9   30.05        
Feb 18 21:52 ENE 5 10 Clear CLR 19 13     77% 12   30.09 30.23      
Feb 18 20:52 ENE 8 10 Clear CLR 20 12     71% 10   30.09 30.24      
Feb 18 19:52 6 10 Clear CLR 20 12     71% 12   30.09 30.25      
Feb 18 18:52 3 10 Clear CLR 21 14     74% 16   30.1 30.27      
Feb 18 17:52 5 10 Clear CLR 24 15     68% 18   30.08 30.22      
Feb 18 16:52 NE 6 10 Clear CLR 28 19     69% 22   30.08 30.19      
Feb 18 15:52 3 10 Clear CLR 30 17     58% 27   30.07 30.18      
Feb 18 14:52 6 10 Clear CLR 30 18     60% 24   30.09 30.2      
Feb 18 13:52 6 10 Clear CLR 29 16     58% 23     30.19      
Feb 18 12:52 E 6 10 Clear CLR 29 17     61% 23   30.1 30.2      
Feb 18 11:52 E 8 10 Clear CLR 28 17     63% 20   30.08 30.19      
Feb 18 10:52 ENE 8 10 Clear CLR 26        % 18   30.07 30.19      
Feb 18 09:52 ENE 9 10 Clear CLR 24        % 14   30.05 30.18      
Feb 18 08:52 NE 10 10 Clear CLR 22 13     68% 11   30.04 30.17      
Feb 18 07:52 NE 11 10 Clear CLR 20 12     71% 8   30.01 30.16      
Feb 18 06:52 NE 9 10 Clear CLR 18 11     74% 7   29.99 30.15      
Feb 18 05:52 NE 13 10 Clear CLR 19 11     70% 6   29.98 30.13      
Feb 18 04:52 NE 10 10 Clear CLR 19 11     70% 7   29.97 30.12      
Feb 18 03:52 NE 8 10 Clear CLR 19 12     74% 9   29.96 30.11      
Feb 18 02:52 ENE 8 10 Clear CLR 19 13     77% 9   29.96 30.1      
Feb 18 01:52 NE 11 10 Clear CLR 20 13     74% 8   29.96 30.09      
Feb 18 00:52 NE 13 10 Clear   21 14     74% 9   29.96 30.09      
Feb 17 23:52 NNE 13 10 Mostly Cloudy BKN100 21 15     77% 9   29.94 30.06      
Feb 17 22:52 NE 13 10 Mostly Cloudy BKN080 21 16     81% 9   29.93 30.05      
Feb 17 21:52 NE 10 10 Cloudy OVC100 22 16     78% 11   29.91 30.04      
Feb 17 20:52 NNE 9 10 Clear CLR 21 16     81% 11   29.9 30.03      
Feb 17 19:52 NE 7 10 Cloudy FEW070 OVC085 21 16     81% 12   29.89 30.03      
Feb 17 18:52 Calm 10 Partly Cloudy SCT080 21 17     84%     29.88 30.01      
Feb 17 18:14 N 3 3 Fog/Mist SCT003 BKN070 23 20     88% 19   29.87        
Feb 17 18:12 N 5 1.5 Fog/Mist SCT003 BKN070 23 20     88% 17   29.87        
Feb 17 18:10 N 5 1 Fog/Mist BKN003 BKN070 BKN080 23 20     88% 17   29.86        
Feb 17 18:03 N 3 1.5 Fog/Mist BKN005 BKN080 23 20     88% 19   29.86        
Feb 17 17:52 N 3 10 Mostly Cloudy BKN005 BKN080 23 20     88% 19   29.86 29.98      
Feb 17 17:36 Calm 3 Fog/Mist OVC004 24 21     88%     29.85        
Feb 17 17:34 Calm 1.75 Fog/Mist OVC004 24 21     88%     29.85        
Feb 17 17:26 Calm 0.5 Fog OVC004 24 21     88%     29.85        
Feb 17 17:10 Calm 1 Fog/Mist BKN004 BKN037 OVC070 24 21     88%     29.85        
Feb 17 17:00 W 5 1 Fog/Mist SCT003 BKN029 OVC070 24 22     91% 18   29.85        
Feb 17 16:57 WNW 3 1.5 Fog/Mist SCT003 BKN040 OVC070 24 22     91% 20   29.85        
Feb 17 16:52 WNW 3 10 Cloudy FEW005 OVC070 23 21     92% 19   29.85 29.97      
Feb 17 15:52 Calm 10 Cloudy FEW012 SCT050 OVC075 23 22     96%     29.84 29.94 0   0
Feb 17 15:42 Calm 5 Fog/Mist FEW012 BKN055 OVC070 23 21     92%     29.83   0    
Feb 17 15:30 NNW 3 2 Light Snow and Fog/Mist SCT013 BKN032 OVC055 23 20     88% 19   29.83   0    
Feb 17 15:26 NNW 3 1.75 Light Snow and Fog/Mist SCT013 BKN024 OVC034 23 20     88% 19   29.83   0    
Feb 17 15:17 NW 3 1.25 Light Snow and Fog/Mist SCT015 BKN026 OVC040 23 20     88% 19   29.83   0    
Feb 17 15:05 NNE 3 2 Light Snow and Fog/Mist SCT015 BKN028 OVC039 23 20     88% 19   29.83   0    
Feb 17 14:52 N 5 4 Light Snow and Fog/Mist FEW017 BKN026 OVC039 23        % 17   29.83 29.93 0    
Feb 17 14:44 6 1.5 Light Snow and Fog/Mist BKN020 BKN028 OVC039 24 22     91% 17   29.82   0    
Feb 17 14:36 5 0.75 Light Snow and Fog/Mist FEW004 BKN016 OVC027 24 21     88% 18   29.82   0    
Feb 17 14:22 NNW 11 1 Light Snow and Fog/Mist SCT004 BKN012 OVC028 24 22     91% 13   29.82   0    
Feb 17 14:11 NW 9 0.5 Snow and Fog BKN006 24 22     91% 14   29.82   0    
Feb 17 14:07 WNW 11 1 Light Snow and Fog/Mist BKN004 OVC043 25 24     96% 14   29.82   0    
Feb 17 14:05 WNW 11 3 Fog/Mist BKN004 BKN015 OVC042 26 25     96% 16   29.82        
Feb 17 13:52 W 8 9 Cloudy BKN006 BKN021 OVC042 26 26     100% 18   29.81 29.91 0    
Feb 17 13:38 W 9 2.5 Fog/Mist BKN006 BKN011 OVC022 26 25     96% 17   29.81   0    
Feb 17 13:10 W 8 9 Cloudy BKN004 BKN010 OVC021 25 25     100% 16   29.82   0    
Feb 17 13:03 W 5 2 Light Snow and Fog/Mist BKN004 OVC010 25 25     100% 19   29.82   0    
Feb 17 12:58 W 7 1 Light Snow and Fog/Mist BKN006 OVC016 24 23     96% 16   29.82   0    
Feb 17 12:52 W 8 0.25 Light Snow and Fog BKN006 OVC015 24 23     96% 15   29.82 29.92 0 0  
Feb 17 12:42 W 6 0.25 Snow and Fog BKN006 OVC015 25 24     96% 18   29.82   0    
Feb 17 12:37 W 6 0.75 Light Snow and Fog/Mist SCT004 BKN011 OVC024 25 25     100% 18   29.82   0    
Feb 17 12:31 W 7 1.5 Light Snow and Fog/Mist SCT006 BKN009 OVC024 25 25     100% 17   29.82   0    
Feb 17 12:22 W 5 2 Light Snow and Fog/Mist BKN004 OVC035 25 25     100% 19   29.83   0    
Feb 17 12:17 W 6 1 Light Snow and Fog/Mist VV004 25 25     100% 18   29.83   0    
Feb 17 11:52 W 6 0.25 Snow and Fog BKN005 OVC014 24 24     100% 17   29.83 29.93 0    
Feb 17 11:40 5 0.75 Light Snow and Fog/Mist BKN006 BKN010 OVC014 24 24     100% 18   29.83   0    
Feb 17 11:24 3 0.5 Light Snow and Fog VV004 24 24     100% 20   29.84   0    
Feb 17 11:16 SW 5 0.25 Light Snow and Fog BKN005 OVC011 24 24     100% 18   29.84   0    
Feb 17 11:07 S 6 0.25 Light Snow and Fog OVC004 24 24     100% 17   29.83   0    
Feb 17 10:52 WSW 6 0.75 Light Snow and Fog/Mist BKN004 OVC009 24 23     96% 17   29.83 29.93 0    
Feb 17 10:41 3 1 Light Snow and Fog/Mist BKN004 OVC009 24 24     100% 20   29.83   0    
Feb 17 10:31 Calm 1.25 Light Snow BKN006 OVC011 25        %     29.83   0    
Feb 17 10:28 Calm 2.5 Light Snow BKN006 BKN009 OVC015 25        %     29.83   0    
Feb 17 10:15 Calm 6 Fog/Mist SCT005 BKN012 OVC032 25 24     96%     29.83   0    
Feb 17 10:04 Calm 3 Light Snow and Fog/Mist BKN005 BKN016 OVC030 24 24     100%     29.83   0    
Feb 17 09:56 Calm 2 Light Snow and Fog/Mist SCT003 BKN015 OVC032 23 23     100%     29.83   0    
Feb 17 09:52 Calm 1.5 Light Snow and Fog/Mist SCT003 BKN012 OVC032 23 23     100%     29.83 29.94 0   0
Feb 17 08:59 Calm 0.5 Snow and Fog FEW007 OVC011 23        %     29.83   0    
Feb 17 08:52 Calm 0.25 Snow and Fog VV010 22        %     29.83 29.95 0    
Feb 17 07:52 S 6 0.5 Snow and Fog FEW005 OVC012 22 20     92% 14   29.82 29.94 0    
Feb 17 07:35 Calm 0.5 Snow and Fog VV010 22 20     92%     29.82   0    
Feb 17 06:59 S 7 0.25 Heavy Snow and Fog VV005 22 19     88% 13   29.81   0    
Feb 17 06:52 S 7 0.5 Snow and Fog VV005 22 19     88% 13   29.81 29.93 0 0  
Feb 17 06:33 SSW 6 0.5 Snow and Fog VV005 22 19     88% 14   29.81   0    
Feb 17 05:52 S 14 0.75 Light Snow and Fog/Mist VV004 23        % 11   29.81 29.92 0    
Feb 17 05:45 S 15 0.5 Snow and Fog VV004 23        % 10   29.82   0    
Feb 17 05:34 S 13 0.5 Snow and Fog VV005 23 20     88% 11   29.81   0    
Feb 17 05:27 SSE 14 0.25 Snow and Fog VV005 23 21     92% 11   29.81   0    
Feb 17 05:21 S 11 0.5 Snow and Fog VV004 23 21     92% 12   29.81   0    
Feb 17 05:12 S 13 0.25 Snow and Fog VV005 23 21     92% 11   29.82   0    
Feb 17 04:52 S 15 0.5 Snow and Fog VV005 23 21     92% 10   29.82 29.92 0    
Feb 17 04:04 S 14 0.5 Snow and Fog VV004 24 21     88% 12   29.83   0    
Feb 17 03:52 S 10 0.25 Snow and Fog VV003 24        % 14   29.83 29.93 0   0
Feb 17 03:30 S 10 0.25 Snow and Fog VV004 24        % 14   29.84   0    
Feb 17 03:02 S 8 0.5 Snow and Fog VV003 24        % 15   29.86   0    
Feb 17 02:52 S 8 0.25 Light Snow and Fog VV002 24        % 15   29.86 29.96 0    
Feb 17 01:52 S 10 0.25 Fog VV002 24 22     91% 14   29.9 30      
Feb 17 00:44 SSW 7 0.25 Fog VV002 24        % 16   29.92        
Feb 17 00:24 S 7 0.5 Fog VV002 24        % 16   29.91        
Feb 17 00:17 SSW 8 0.25 Fog VV002 24        % 15   29.91        
Feb 17 00:08 SSW 7 0.5 Fog VV002 25        % 17   29.92        
Feb 16 23:52 SW 8 0.25 Fog VV002 25        % 16   29.91 30.01 0    
May 14 21:52 Calm 10 Clear CLR 51 47     86%     30.05 29.89      
May 14 10:52 7 10 Mostly Clear FEW055 60 34     37%     30.06 29.89      
May 13 09:52 Calm 10 Clear   54 39     57%     30.06 29.92      
May 12 18:52 5 10 Cloudy OVC090 53 38     56%     29.98 29.86      
May 11 21:52 7 10 Clear CLR 47 25     42% 44   29.92 29.79      
May 11 17:52 NNE 10 10 Clear CLR 56 20     24%     29.91 29.75      
May 11 15:52 NNE 10 10 Clear CLR 57 17     21%     29.91 29.75      
Jun 12 01:33 SSE 3 1.25 Light Snow and Fog/Mist BKN003 OVC007 33 33     100% 30   29.96   0    
Jun 12 01:18 SSW 3 2.5 Light Snow and Fog/Mist OVC004 33 33     100% 30   29.96   0    
Jun 11 17:08 6 5 Fog/Mist SCT004 BKN013 OVC034 36 35     96% 31   29.93   0    
Jun 11 15:52 W 7 2.5 Light Snow and Fog/Mist FEW010 BKN018 OVC049 36 34     92% 30   29.94 29.91 0    
Jun 11 13:02   10 Mostly Cloudy FEW022 SCT029 BKN050 42 32     67%     29.9        
Jun 11 12:52 SSW 10 10 Clear   42 31     64% 36   29.9 29.84      
Jun 11 09:59 5 10 Cloudy FEW019 BKN028 OVC035 40 33     76% 37            
Jun 11 09:42 S 9 10 Mostly Cloudy FEW020 BKN028 BKN034 39 33     79% 33   29.87        
Jun 11 04:52 5 2.5 Fog/Mist OVC002 38 38     100% 34     29.78      
Jun 11 02:52 S 6 0.75 Fog/Mist VV002 39 39     100% 35     29.79      
Jun 11 00:43 S 7 1.25 Fog/Mist OVC002 40 40     100% 35   29.91        
Jun 10 22:52 S 9 10 Cloudy OVC005 42 41     96% 37   29.93 29.83      
Jun 10 03:00 SSE 11 3 Fog/Mist BKN002 OVC009 44 44     100% 38   29.95        
Jun 10 02:14 SSE 10 1.25 Fog/Mist OVC002 44 44     100% 39   29.97        
Jun 09 21:27 S 9 1.75 Fog/Mist BKN002 BKN006 OVC016 47 46     97% 43   29.99        
Jun 09 18:52 SSW 11 10 Cloudy SCT007 BKN010 OVC017 49 47     93% 44     29.87      
Jun 09 13:52 SW 10 0.25 Clear   48 48     100% 43   30.01 29.91 0    
Jun 09 10:52 SSW 9 0.25 Fog VV002 47 47     100% 43   30 29.91     0
Jun 09 06:35 S 9 0.25 Fog VV002 46 46     100% 41   30.01        
Jun 09 05:52 S 7 0.25 Fog VV001 46 46     100% 42   30.01 29.91      
Jun 09 03:52 S 6 0.25 Fog VV002 46 46     100% 43   30.03 29.94      
Jun 09 02:52 S 7 0.5 Fog VV002 46 46     100% 42   30.04 29.95      
Notice The following observation data may not be complete
Jun 09 02:08   1.5 Fog/Mist OVC002          %              
Jun 09 01:48 SSW 5 0.75 Fog/Mist VV002 46 46     100% 44   30.05        
Jun 08 18:52 S 7 0.25 Fog VV002 48 48     100% 45   30.09 29.99      
Notice The following observation data may not be complete
Jun 08 17:42   1.25 Fog/Mist OVC002          %              
Jun 08 11:52   1.75 Light Rain and Fog/Mist SCT006 BKN010 OVC021 43 42     97%     30.12 30.02 0    
Notice The following observation data may not be complete
Jun 08 11:20   2 Rain and Fog/Mist FEW005 SCT012 OVC021          %         0    
Jun 07 23:52 SE 7 10 Clear CLR 51 39     63%       29.83      
Jun 07 22:52 SE 7 10 Clear CLR 51 40     65%     30.05 29.85      
Jun 07 20:52 S 8 10 Clear CLR 57 38     49%     30.04 29.82      
Jun 05 21:52 Calm 10 Clear CLR 59 32     36%       29.87